CW1248 Weather Reports


Display with metric or nautical units.
time (UTC)temp
F
wind
direction
speed
MPH
gust
MPH
rain 1hr
in
rain 24hr
in
rain mn
in
humidity
%
barometer
mb
20221205214525 28 349 4.0 12.0 0.00 0.00 0.00 65 1015.5
20221205213026 28 22 8.0 17.0 0.00 0.00 0.00 63 1015.3
20221205211522 29 309 6.0 10.0 0.00 0.00 0.00 65 1015.0
20221205210019 29 324 5.0 11.0 0.00 0.00 0.00 67 1014.9
20221205204519 29 295 5.0 9.0 0.00 0.01 0.00 65 1014.7
20221205203015 29 325 6.0 11.0 0.00 0.01 0.00 67 1014.2
20221205201525 30 320 7.0 12.0 0.00 0.01 0.00 67 1014.2
20221205200015 30 28 5.0 11.0 0.00 0.01 0.00 67 1014.2
20221205194513 30 313 5.0 11.0 0.00 0.02 0.00 67 1013.7
20221205193021 30 308 5.0 10.0 0.00 0.02 0.00 66 1013.7
20221205191511 31 290 5.0 10.0 0.00 0.02 0.00 68 1013.4
20221205190009 31 305 2.0 7.0 0.00 0.02 0.00 69 1013.1
20221205184508 30 349 3.0 7.0 0.00 0.02 0.00 70 1013.1
20221205183007 30 32 5.0 10.0 0.00 0.02 0.00 69 1013.1
20221205181507 31 309 4.0 9.0 0.00 0.02 0.00 69 1013.0
20221205180007 31 293 4.0 8.0 0.00 0.02 0.00 68 1013.0
20221205174508 31 327 4.0 9.0 0.00 0.02 0.00 68 1013.2
20221205173003 30 255 5.0 10.0 0.00 0.02 0.00 70 1013.3
20221205171501 30 359 2.0 10.0 0.00 0.02 0.00 70 1013.3
20221205170101 30 324 4.0 9.0 0.00 0.02 0.00 71 1013.4
20221205164600 30 285 4.0 9.0 0.00 0.02 0.00 71 1013.3
20221205163059 30 16 3.0 12.0 0.00 0.02 0.00 72 1013.5
20221205161610 29 307 6.0 12.0 0.00 0.02 0.00 74 1013.3
20221205160053 28 300 5.0 8.0 0.00 0.02 0.00 77 1013.1
20221205154558 28 319 6.0 11.0 0.00 0.02 0.00 78 1013.2
20221205153047 27 283 6.0 11.0 0.00 0.02 0.00 80 1012.8
20221205151543 27 292 4.0 10.0 0.00 0.02 0.00 82 1012.3
20221205150041 26 331 5.0 9.0 0.00 0.02 0.00 84 1012.2
20221205144540 25 311 2.0 7.0 0.00 0.02 0.00 85 1012.1
20221205143038 24 276 3.0 7.0 0.00 0.02 0.00 85 1012.3
20221205141542 24 295 2.0 6.0 0.00 0.02 0.00 85 1012.0
20221205140034 23 284 2.0 5.0 0.00 0.02 0.00 85 1011.6
20221205134531 23 307 3.0 5.0 0.00 0.02 0.00 84 1011.4
20221205133030 23 290 3.0 7.0 0.00 0.02 0.00 83 1011.2
20221205131526 23 245 2.0 3.0 0.00 0.02 0.00 83 1010.6
20221205130037 24 259 1.0 2.0 0.00 0.02 0.00 82 1010.3
20221205124533 24 276 1.0 3.0 0.00 0.02 0.00 82 1010.2
20221205123024 24 310 2.0 4.0 0.00 0.02 0.00 82 1010.2
20221205121527 25 284 1.0 3.0 0.00 0.02 0.00 82 1010.0
20221205120022 25 276 0.0 2.0 0.00 0.02 0.00 82 1010.2
20221205114521 25 260 1.0 4.0 0.00 0.02 0.00 81 1010.3
20221205113021 26 262 3.0 5.0 0.00 0.02 0.00 80 1010.2
20221205111519 26 302 1.0 3.0 0.00 0.02 0.00 81 1009.8
20221205110017 26 81 1.0 5.0 0.00 0.02 0.00 81 1009.6
20221205104533 26 292 2.0 4.0 0.00 0.02 0.00 81 1009.9
20221205103018 26 286 3.0 5.0 0.00 0.02 0.00 81 1010.1
20221205101515 26 288 4.0 7.0 0.00 0.02 0.00 81 1010.2
20221205100014 26 241 3.0 5.0 0.00 0.02 0.00 81 1009.8
20221205094513 26 318 4.0 6.0 0.00 0.02 0.00 81 1009.8
20221205093015 26 259 4.0 6.0 0.00 0.02 0.00 81 1009.9
20221205091510 26 276 4.0 8.0 0.00 0.02 0.00 80 1009.6
20221205090010 26 247 4.0 6.0 0.00 0.02 0.00 80 1009.4
20221205084506 26 315 3.0 6.0 0.00 0.02 0.00 80 1009.2
20221205083006 26 276 3.0 5.0 0.00 0.02 0.00 80 1009.1
20221205081504 26 246 4.0 6.0 0.00 0.02 0.00 81 1009.1
20221205080003 25 252 4.0 6.0 0.00 0.02 0.00 81 1009.3
20221205074502 25 253 4.0 5.0 0.00 0.02 0.00 81 1009.0
20221205073106 24 239 3.0 5.0 0.00 0.02 0.00 81 1009.1
20221205071602 24 240 3.0 5.0 0.00 0.02 0.00 80 1009.3
20221205070056 24 193 2.0 5.0 0.00 0.02 0.00 79 1009.0
20221205064559 25 213 2.0 4.0 0.00 0.02 0.00 78 1009.2
20221205063100 25 168 2.0 6.0 0.00 0.02 0.00 77 1009.1
20221205061546 26 276 2.0 5.0 0.00 0.02 0.00 78 1009.3
20221205060047 26 247 3.0 5.0 0.00 0.02 0.00 77 1009.5
20221205054559 26 259 3.0 5.0 0.00 0.02 0.02 77 1009.5
20221205053058 26 239 1.0 5.0 0.00 0.02 0.02 76 1009.1
20221205051544 27 243 2.0 4.0 0.00 0.02 0.02 75 1009.1
20221205050040 27 235 2.0 5.0 0.00 0.02 0.02 74 1009.3
20221205044539 28 245 2.0 5.0 0.00 0.02 0.02 74 1009.5
20221205043039 28 262 2.0 7.0 0.00 0.02 0.02 73 1009.4
20221205041538 28 230 4.0 8.0 0.00 0.02 0.02 72 1009.6
20221205040038 29 229 3.0 7.0 0.00 0.02 0.02 72 1009.6
20221205034539 29 252 4.0 9.0 0.00 0.02 0.02 71 1009.8
20221205033035 29 230 4.0 8.0 0.00 0.02 0.02 71 1009.9
20221205031535 30 219 5.0 12.0 0.00 0.02 0.02 70 1009.9
20221205030034 30 246 6.0 11.0 0.00 0.02 0.02 70 1010.0
20221205024533 30 230 5.0 10.0 0.00 0.02 0.02 69 1010.1
20221205023041 30 234 6.0 10.0 0.00 0.02 0.02 69 1009.9
20221205021533 30 200 6.0 12.0 0.00 0.02 0.02 70 1010.2
20221205020028 30 246 5.0 9.0 0.00 0.02 0.02 70 1010.5
20221205014534 29 217 5.0 13.0 0.00 0.02 0.02 69 1010.7
20221205013026 29 247 4.0 11.0 0.00 0.02 0.02 68 1010.9
20221205011523 29 259 5.0 11.0 0.00 0.02 0.02 67 1011.2
20221205010022 29 276 4.0 9.0 0.00 0.02 0.02 65 1011.2
20221205004521 30 219 5.0 11.0 0.00 0.02 0.02 64 1011.4
20221205003022 30 229 4.0 11.0 0.00 0.02 0.02 65 1011.6
20221205001540 30 243 4.0 9.0 0.00 0.02 0.02 64 1011.7
20221205000017 30 223 6.0 11.0 0.00 0.02 0.02 63 1012.0
20221204234514 31 175 4.0 7.0 0.00 0.02 0.02 62 1012.5
20221204233011 31 215 4.0 9.0 0.00 0.02 0.02 61 1012.6
20221204231510 31 208 4.0 12.0 0.00 0.02 0.02 62 1012.8
20221204230008 31 237 4.0 10.0 0.00 0.02 0.02 62 1013.0
20221204224511 32 241 5.0 11.0 0.00 0.02 0.02 62 1013.2
20221204223005 32 236 5.0 10.0 0.00 0.02 0.02 62 1013.5
20221204221501 33 230 5.0 11.0 0.00 0.02 0.02 61 1013.9
20221204220002 34 223 5.0 11.0 0.00 0.02 0.02 59 1014.0